JCSAT 3

导读

JCSAT 3(又名N-STAR a)是日本JSAT公司与NTT DoCoMo联合运营的商用通信卫星,于1995年8月29日发射升空,定轨东经132度。它采用与第七代国际电信卫星相似技术,主要覆盖日本本土,提供电信载波传输、企业专网通信、公众电信服务及移动通信支撑,卫星设计寿命12年,是日本早期卫星移动通信网络的核心组成部分,支撑了日本初期卫星通信业务发展。

Basic Information
目录编号:
23649
目录名称:
JCSAT 3
国际标识:
1995-043A
轨道中心:
EARTH
卫星名称:
JCSAT 3
卫星全名:
--
卫星状态:
在轨 (已飞行11248 天)
发射日期:
1995-08-29 UTC
国别 :
日本 (JP)
星等 :
--
Orbit Information
数据来源 国际轨道数据 AOE轨道数据
星历时间 2026-06-15T02:35:24+0800
9小时前
查看轨道信息
2026-06-15T05:00:00+0800
6小时前
查看轨道信息
半长轴 42482.599km 42482.599km
偏心率 0.0015004 0.0015006
轨道倾角 12.936° 12.936°
近地点辐角 75.500° 75.101°
升交点赤经 17.572° 17.572°
平近点角 111.395° 147.634°
近地点 36040.721km 36040.712km
远地点 36168.203km 36168.212km
周期 1452.367分钟 1452.367分钟
每日圈数 0.991485 0.991485
Detailed Information
使用方式:
暂无
2D Orbit Map
3D Orbit Map
Orbit Altitude Analysis Chart
Orbit Inclination Analysis Chart
Orbit Comprehensive Analysis Chart
View Comprehensive Chart